Tracking 30995 objects as of 7-Jul-2025
HD Live streaming from Space Station
objects crossing your sky now

INTELSAT 801

Track INTELSAT 801 now!
INTELSAT 801 is classified as:


NORAD ID: 24742
Int'l Code: 1997-009A
Perigee: 36,187.9 km
Apogee: 36,272.5 km
Inclination: 11.7 °
Period: 1,458.5 minutes
Semi major axis: 42601 km
RCS: 1.061 m2 (large)
Launch date: March 1, 1997
Source: International Telecommunications Satellite Organization (ITSO)
Launch site: FRENCH GUIANA (FRGUI)

64 C-band, 16 Ku-band; broadcasting, business services, direct-to-home TV broadcasting, telecommunications, VSAT networks; Atlantic Ocean region.
Your satellite tracking list
Your tracking list is empty




NASA's NSSDC Master Catalog

Two Line Element Set (TLE):
1 24742U 97009A   25187.51425061 -.00000109  00000-0  00000-0 0  9992
2 24742  11.6522  35.8145 0009930  12.1991 170.2211  0.98734670103246
Source of the keplerian elements: AFSPC